,,,PA_Meas_PMT16A,,PR_Meas_QMR101_102,,RH_Meas_QMH101,,SR_Meas_QMS101,,TA_Meas_QMH101,,GenWind,,GenWind,
date,time,status,PA,status,PR,status,RH,status,SR,status,TA,status,DirAvg,status,SpdAvg,
2010-01-15, 00:00:05,VALID,1001.55,VALID,0,VALID,92.8143,VALID,0,VALID,23.5061,VALID,188,VALID,0,
2010-01-15, 00:01:05,VALID,1001.54,VALID,0,VALID,92.9669,VALID,0,VALID,23.5061,VALID,188,VALID,0,
2010-01-15, 00:02:05,VALID,1001.53,VALID,0,VALID,93.0737,VALID,0,VALID,23.5256,VALID,188,VALID,0,
2010-01-15, 00:03:05,VALID,1001.51,VALID,0,VALID,93.1424,VALID,0,VALID,23.5451,VALID,188,VALID,0,
2010-01-15, 00:04:05,VALID,1001.5,VALID,0,VALID,93.1119,VALID,0,VALID,23.5256,VALID,188,VALID,0,
2010-01-15, 00:05:05,VALID,1001.49,VALID,0,VALID,93.0585,VALID,0,VALID,23.4866,VALID,154,VALID,0,
2010-01-15, 00:06:05,VALID,1001.51,VALID,0,VALID,92.9745,VALID,0,VALID,23.4475,VALID,101,VALID,0,
2010-01-15, 00:07:05,VALID,1001.49,VALID,0,VALID,92.9898,VALID,0,VALID,23.4085,VALID,52,VALID,0,
2010-01-15, 00:08:05,VALID,1001.47,VALID,0,VALID,93.0432,VALID,0,VALID,23.4085,VALID,50,VALID,0,
2010-01-15, 00:09:05,VALID,1001.48,VALID,0,VALID,93.0051,VALID,0,VALID,23.3695,VALID,352,VALID,0.0640625,
2010-01-15, 00:10:05,VALID,1001.46,VALID,0,VALID,93.1348,VALID,0,VALID,23.3695,VALID,341,VALID,0.412891,
2010-01-15, 00:11:05,VALID,1001.44,VALID,0,VALID,93.1958,VALID,0,VALID,23.3695,VALID,341,VALID,0.240234,
2010-01-15, 00:12:05,VALID,1001.44,VALID,0,VALID,93.2111,VALID,0,VALID,23.3695,VALID,341,VALID,0,
2010-01-15, 00:13:05,VALID,1001.43,VALID,0,VALID,93.2492,VALID,0,VALID,23.3695,VALID,341,VALID,0,
2010-01-15, 00:14:05,VALID,1001.43,VALID,0,VALID,93.3103,VALID,0,VALID,23.3695,VALID,341,VALID,0,
2010-01-15, 00:15:05,VALID,1001.4,VALID,0,VALID,93.2416,VALID,0,VALID,23.3695,VALID,341,VALID,0,
2010-01-15, 00:16:05,VALID,1001.41,VALID,0,VALID,93.234,VALID,0,VALID,23.3305,VALID,341,VALID,0.401172,
2010-01-15, 00:17:05,VALID,1001.38,VALID,0,VALID,93.2645,VALID,0,VALID,23.2897,VALID,341,VALID,0.357031,
2010-01-15, 00:18:05,VALID,1001.36,VALID,0,VALID,93.3026,VALID,0,VALID,23.2915,VALID,341,VALID,0.319531,
2010-01-15, 00:19:05,VALID,1001.36,VALID,0,VALID,93.2874,VALID,0,VALID,23.2702,VALID,341,VALID,0,
2010-01-15, 00:20:05,VALID,1001.34,VALID,0,VALID,93.3026,VALID,0,VALID,23.2702,VALID,341,VALID,0,
2010-01-15, 00:21:05,VALID,1001.31,VALID,0,VALID,93.3255,VALID,0,VALID,23.2719,VALID,341,VALID,0,
2010-01-15, 00:22:05,VALID,1001.31,VALID,0,VALID,93.3103,VALID,0,VALID,23.2329,VALID,341,VALID,0,
2010-01-15, 00:23:05,VALID,1001.31,VALID,0,VALID,93.356,VALID,0,VALID,23.2134,VALID,341,VALID,0,
2010-01-15, 00:24:05,VALID,1001.27,VALID,0,VALID,93.4018,VALID,0,VALID,23.2329,VALID,341,VALID,0,
2010-01-15, 00:25:05,VALID,1001.25,VALID,0,VALID,93.3942,VALID,0,VALID,23.2134,VALID,341,VALID,0,
2010-01-15, 00:26:05,VALID,1001.22,VALID,0,VALID,93.3637,VALID,0,VALID,23.1939,VALID,341,VALID,0,
2010-01-15, 00:27:05,VALID,1001.2,VALID,0,VALID,93.3713,VALID,0,VALID,23.1549,VALID,341,VALID,0,
2010-01-15, 00:28:05,VALID,1001.2,VALID,0,VALID,93.44,VALID,0,VALID,23.1957,VALID,341,VALID,0,
2010-01-15, 00:29:05,VALID,1001.15,VALID,0,VALID,93.4934,VALID,0,VALID,23.1939,VALID,341,VALID,0,
2010-01-15, 00:30:05,VALID,1001.13,VALID,0,VALID,93.5315,VALID,0,VALID,23.2134,VALID,341,VALID,0,
2010-01-15, 00:31:05,VALID,1001.17,VALID,0,VALID,93.5468,VALID,0,VALID,23.2329,VALID,341,VALID,0,
2010-01-15, 00:32:05,VALID,1001.13,VALID,0,VALID,93.5926,VALID,0,VALID,23.2524,VALID,341,VALID,0,
2010-01-15, 00:33:05,VALID,1001.12,VALID,0,VALID,93.5239,VALID,0,VALID,23.2329,VALID,341,VALID,0,
2010-01-15, 00:34:05,VALID,1001.12,VALID,0,VALID,93.5086,VALID,0,VALID,23.1744,VALID,341,VALID,0,
2010-01-15, 00:35:05,VALID,1001.11,VALID,0,VALID,93.5239,VALID,0,VALID,23.1744,VALID,341,VALID,0,
2010-01-15, 00:36:05,VALID,1001.09,VALID,0,VALID,93.5926,VALID,0,VALID,23.1726,VALID,341,VALID,0,
2010-01-15, 00:37:05,VALID,1001.06,VALID,0,VALID,93.6307,VALID,0,VALID,23.2134,VALID,341,VALID,0,
2010-01-15, 00:38:05,VALID,1001.05,VALID,0,VALID,93.6536,VALID,0,VALID,23.2134,VALID,341,VALID,0,
2010-01-15, 00:39:05,VALID,1001.04,VALID,0,VALID,93.646,VALID,0,VALID,23.1921,VALID,341,VALID,0,
2010-01-15, 00:40:05,VALID,1001.06,VALID,0,VALID,93.6612,VALID,0,VALID,23.2134,VALID,341,VALID,0,
2010-01-15, 00:41:05,VALID,1001.05,VALID,0,VALID,93.6612,VALID,0,VALID,23.2329,VALID,341,VALID,0,
2010-01-15, 00:42:05,VALID,1001.06,VALID,0,VALID,93.6688,VALID,0,VALID,23.2134,VALID,341,VALID,0,
2010-01-15, 00:43:05,VALID,1001.02,VALID,0,VALID,93.6612,VALID,0,VALID,23.1939,VALID,341,VALID,0,
2010-01-15, 00:44:05,VALID,1001.05,VALID,0,VALID,93.6688,VALID,0,VALID,23.1939,VALID,341,VALID,0,
2010-01-15, 00:45:05,VALID,1001.04,VALID,0,VALID,93.6688,VALID,0,VALID,23.1744,VALID,341,VALID,0,
2010-01-15, 00:46:05,VALID,1001.03,VALID,0,VALID,93.6765,VALID,0,VALID,23.1744,VALID,341,VALID,0,
2010-01-15, 00:47:05,VALID,1001,VALID,0,VALID,93.6765,VALID,0,VALID,23.1549,VALID,341,VALID,0,
2010-01-15, 00:48:05,VALID,1001.04,VALID,0,VALID,93.6917,VALID,0,VALID,23.1354,VALID,341,VALID,0,
2010-01-15, 00:49:05,VALID,1001.01,VALID,0,VALID,93.6612,VALID,0,VALID,23.1159,VALID,341,VALID,0,
2010-01-15, 00:50:05,VALID,1000.99,VALID,0,VALID,93.6536,VALID,0,VALID,23.0751,VALID,341,VALID,0,
2010-01-15, 00:51:05,VALID,1000.99,VALID,0,VALID,93.6688,VALID,0,VALID,23.0769,VALID,341,VALID,0,
2010-01-15, 00:52:05,VALID,1000.99,VALID,0,VALID,93.6841,VALID,0,VALID,23.0573,VALID,341,VALID,0,
2010-01-15, 00:53:05,VALID,1000.96,VALID,0,VALID,93.6917,VALID,0,VALID,23.0378,VALID,341,VALID,0,
2010-01-15, 00:54:05,VALID,1000.94,VALID,0,VALID,93.6994,VALID,0,VALID,23.0378,VALID,341,VALID,0,
2010-01-15, 00:55:05,VALID,1000.92,VALID,0,VALID,93.7833,VALID,0,VALID,23.0573,VALID,341,VALID,0,
2010-01-15, 00:56:05,VALID,1000.91,VALID,0,VALID,93.8367,VALID,0,VALID,23.1354,VALID,341,VALID,0,
2010-01-15, 00:57:05,VALID,1000.88,VALID,0,VALID,93.8596,VALID,0,VALID,23.1939,VALID,341,VALID,0,
2010-01-15, 00:58:05,VALID,1000.89,VALID,0,VALID,93.8443,VALID,0,VALID,23.1939,VALID,341,VALID,0,
2010-01-15, 00:59:05,VALID,1000.9,VALID,0,VALID,93.8291,VALID,0,VALID,23.1939,VALID,341,VALID,0,
2010-01-15, 01:00:05,VALID,1000.94,VALID,0,VALID,93.7985,VALID,0,VALID,23.1744,VALID,341,VALID,0,
2010-01-15, 01:01:05,VALID,1000.92,VALID,0,VALID,93.8214,VALID,0,VALID,23.1744,VALID,341,VALID,0,
2010-01-15, 01:02:05,VALID,1000.9,VALID,0,VALID,93.7146,VALID,0,VALID,23.0573,VALID,341,VALID,0,
2010-01-15, 01:03:05,VALID,1000.93,VALID,0,VALID,93.6994,VALID,0,VALID,22.9776,VALID,341,VALID,0,
2010-01-15, 01:04:05,VALID,1000.93,VALID,0,VALID,93.7604,VALID,0,VALID,22.9598,VALID,341,VALID,0,
2010-01-15, 01:05:05,VALID,1000.9,VALID,0,VALID,93.8596,VALID,0,VALID,22.9793,VALID,57,VALID,0,
2010-01-15, 01:06:05,VALID,1000.91,VALID,0,VALID,93.852,VALID,0,VALID,23.0378,VALID,81,VALID,0.844141,
2010-01-15, 01:07:05,VALID,1000.92,VALID,0,VALID,93.6917,VALID,0,VALID,22.9208,VALID,81,VALID,0.2375,
2010-01-15, 01:08:05,VALID,1000.9,VALID,0,VALID,93.6231,VALID,0,VALID,22.7647,VALID,81,VALID,0.00195313,
2010-01-15, 01:09:05,VALID,1000.86,VALID,0,VALID,93.6917,VALID,0,VALID,22.7062,VALID,81,VALID,0,
2010-01-15, 01:10:05,VALID,1000.85,VALID,0,VALID,93.8825,VALID,0,VALID,22.7647,VALID,81,VALID,0,
2010-01-15, 01:11:05,VALID,1000.81,VALID,0,VALID,93.9969,VALID,0,VALID,22.9013,VALID,81,VALID,0,
2010-01-15, 01:12:05,VALID,1000.81,VALID,0,VALID,93.8977,VALID,0,VALID,22.8995,VALID,81,VALID,0,
2010-01-15, 01:13:05,VALID,1000.81,VALID,0,VALID,93.9283,VALID,0,VALID,22.9403,VALID,73,VALID,0,
2010-01-15, 01:14:05,VALID,1000.82,VALID,0,VALID,93.9511,VALID,0,VALID,23.0183,VALID,330,VALID,1.12266,
2010-01-15, 01:15:05,VALID,1000.79,VALID,0,VALID,93.9359,VALID,0,VALID,23.0183,VALID,343,VALID,0.86875,
2010-01-15, 01:16:05,VALID,1000.79,VALID,0,VALID,93.9511,VALID,0,VALID,23.0183,VALID,347,VALID,0.439063,
2010-01-15, 01:17:05,VALID,1000.74,VALID,0,VALID,93.9664,VALID,0,VALID,23.0378,VALID,347,VALID,0.0914062,
2010-01-15, 01:18:05,VALID,1000.73,VALID,0,VALID,93.9206,VALID,0,VALID,22.9988,VALID,159,VALID,0.462109,
2010-01-15, 01:19:05,VALID,1000.7,VALID,0,VALID,93.9283,VALID,0,VALID,22.9988,VALID,156,VALID,0.307422,
2010-01-15, 01:20:05,VALID,1000.69,VALID,0,VALID,93.9283,VALID,0,VALID,22.9793,VALID,156,VALID,0.108594,
2010-01-15, 01:21:05,VALID,1000.69,VALID,0,VALID,93.9359,VALID,0,VALID,22.9793,VALID,122,VALID,0.323438,
2010-01-15, 01:22:05,VALID,1000.67,VALID,0,VALID,93.9817,VALID,0,VALID,22.9598,VALID,85,VALID,0.718359,
2010-01-15, 01:23:05,VALID,1000.66,VALID,0,VALID,93.9969,VALID,0,VALID,22.9988,VALID,84,VALID,0.255469,
2010-01-15, 01:24:05,VALID,1000.64,VALID,0,VALID,93.9664,VALID,0,VALID,22.9988,VALID,84,VALID,0.0183594,
2010-01-15, 01:25:05,VALID,1000.65,VALID,0,VALID,93.9511,VALID,0,VALID,22.9988,VALID,84,VALID,0.210547,
2010-01-15, 01:26:05,VALID,1000.61,VALID,0,VALID,93.9588,VALID,0,VALID,22.9971,VALID,84,VALID,0.123047,
2010-01-15, 01:27:05,VALID,1000.57,VALID,0,VALID,93.9511,VALID,0,VALID,23.0183,VALID,84,VALID,0,
2010-01-15, 01:28:05,VALID,1000.55,VALID,0,VALID,93.9435,VALID,0,VALID,22.9776,VALID,84,VALID,0,
2010-01-15, 01:29:05,VALID,1000.55,VALID,0,VALID,93.974,VALID,0,VALID,22.9988,VALID,84,VALID,0.0882813,
2010-01-15, 01:30:05,VALID,1000.5,VALID,0,VALID,93.9283,VALID,0,VALID,22.9793,VALID,84,VALID,0,
2010-01-15, 01:31:05,VALID,1000.49,VALID,0,VALID,93.9511,VALID,0,VALID,23.0183,VALID,84,VALID,0.0324219,
2010-01-15, 01:32:05,VALID,1000.51,VALID,0,VALID,93.9588,VALID,0,VALID,23.0361,VALID,84,VALID,0.199219,
2010-01-15, 01:33:05,VALID,1000.49,VALID,0,VALID,93.9511,VALID,0,VALID,23.0573,VALID,74,VALID,0.00117188,
2010-01-15, 01:34:05,VALID,1000.48,VALID,0,VALID,93.9435,VALID,0,VALID,23.0378,VALID,61,VALID,0,
2010-01-15, 01:35:05,VALID,1000.44,VALID,0,VALID,93.9054,VALID,0,VALID,22.9988,VALID,61,VALID,0,
2010-01-15, 01:36:05,VALID,1000.43,VALID,0,VALID,93.9359,VALID,0,VALID,22.9988,VALID,61,VALID,0,
2010-01-15, 01:37:05,VALID,1000.4,VALID,0,VALID,93.9283,VALID,0,VALID,23.0183,VALID,61,VALID,0,
2010-01-15, 01:38:05,VALID,1000.37,VALID,0,VALID,93.8825,VALID,0,VALID,23.0183,VALID,61,VALID,0,
2010-01-15, 01:39:05,VALID,1000.31,VALID,0,VALID,93.8977,VALID,0,VALID,22.9793,VALID,61,VALID,0,
2010-01-15, 01:40:05,VALID,1000.32,VALID,0,VALID,93.8748,VALID,0,VALID,22.9598,VALID,61,VALID,0,
2010-01-15, 01:41:05,VALID,1000.27,VALID,0,VALID,93.8977,VALID,0,VALID,22.9598,VALID,61,VALID,0,
2010-01-15, 01:42:05,VALID,1000.26,VALID,0,VALID,93.8748,VALID,0,VALID,22.9403,VALID,61,VALID,0,
2010-01-15, 01:43:05,VALID,1000.25,VALID,0,VALID,93.8748,VALID,0,VALID,22.9598,VALID,116,VALID,0.55,
2010-01-15, 01:44:05,VALID,1000.23,VALID,0,VALID,93.9588,VALID,0,VALID,22.9988,VALID,128,VALID,1.11055,
2010-01-15, 01:45:05,VALID,1000.23,VALID,0,VALID,93.9588,VALID,0,VALID,23.0183,VALID,128,VALID,0.916016,
2010-01-15, 01:46:05,VALID,1000.2,VALID,0,VALID,93.8977,VALID,0,VALID,23.0378,VALID,127,VALID,0.645312,
2010-01-15, 01:47:05,VALID,1000.21,VALID,0,VALID,93.8825,VALID,0,VALID,22.9988,VALID,127,VALID,0.121094,
2010-01-15, 01:48:05,VALID,1000.21,VALID,0,VALID,93.852,VALID,0,VALID,22.9988,VALID,135,VALID,0.391016,
2010-01-15, 01:49:05,VALID,1000.16,VALID,0,VALID,93.8596,VALID,0,VALID,23.0183,VALID,162,VALID,0.0140625,
2010-01-15, 01:50:05,VALID,1000.15,VALID,0,VALID,93.8367,VALID,0,VALID,23.0183,VALID,162,VALID,0,
2010-01-15, 01:51:05,VALID,1000.16,VALID,0,VALID,93.8214,VALID,0,VALID,23.0183,VALID,162,VALID,0,
2010-01-15, 01:52:05,VALID,1000.13,VALID,0,VALID,93.8062,VALID,0,VALID,23.0183,VALID,162,VALID,0,
2010-01-15, 01:53:05,VALID,1000.13,VALID,0,VALID,93.8443,VALID,0,VALID,23.0378,VALID,162,VALID,0.034375,
2010-01-15, 01:54:05,VALID,1000.14,VALID,0,VALID,93.8596,VALID,0,VALID,23.0361,VALID,162,VALID,0,
2010-01-15, 01:55:05,VALID,1000.1,VALID,0,VALID,93.8291,VALID,0,VALID,23.0556,VALID,162,VALID,0,
2010-01-15, 01:56:05,VALID,1000.09,VALID,0,VALID,93.7833,VALID,0,VALID,23.0769,VALID,162,VALID,0,
2010-01-15, 01:57:05,VALID,1000.08,VALID,0,VALID,93.7833,VALID,0,VALID,23.0964,VALID,162,VALID,0,
2010-01-15, 01:58:05,VALID,1000.06,VALID,0,VALID,93.7528,VALID,0,VALID,23.1159,VALID,153,VALID,0.183594,
2010-01-15, 01:59:05,VALID,1000.01,VALID,0,VALID,93.707,VALID,0,VALID,23.1159,VALID,133,VALID,0.752344,
2010-01-15, 02:00:05,VALID,1000.02,VALID,0,VALID,93.6154,VALID,0,VALID,23.1354,VALID,133,VALID,0.203906,
2010-01-15, 02:01:05,VALID,1000.03,VALID,0,VALID,93.562,VALID,0,VALID,23.1159,VALID,121,VALID,0.438281,
2010-01-15, 02:02:05,VALID,1000.01,VALID,0,VALID,93.5239,VALID,0,VALID,23.1354,VALID,86,VALID,0.652344,
2010-01-15, 02:03:05,VALID,999.992,VALID,0,VALID,93.3942,VALID,0.112286,VALID,23.0946,VALID,98,VALID,1.17383,
2010-01-15, 02:04:05,VALID,1000.02,VALID,0,VALID,93.3637,VALID,0,VALID,23.1141,VALID,98,VALID,1.0457,
2010-01-15, 02:05:05,VALID,1000,VALID,0,VALID,93.2645,VALID,0,VALID,23.1159,VALID,101,VALID,0.847656,
2010-01-15, 02:06:05,VALID,1000,VALID,0,VALID,93.2721,VALID,0,VALID,23.0946,VALID,101,VALID,0.798437,
2010-01-15, 02:07:05,VALID,999.995,VALID,0,VALID,93.3179,VALID,0,VALID,23.1159,VALID,100,VALID,0.799219,
2010-01-15, 02:08:05,VALID,999.985,VALID,0,VALID,93.15,VALID,0,VALID,23.1159,VALID,56,VALID,0.623828,
2010-01-15, 02:09:05,VALID,999.985,VALID,0,VALID,92.8906,VALID,0,VALID,23.0183,VALID,31,VALID,0.830078,
2010-01-15, 02:10:05,VALID,999.983,VALID,0,VALID,93.0051,VALID,0,VALID,22.9988,VALID,27,VALID,1.02344,
2010-01-15, 02:11:05,VALID,999.927,VALID,0,VALID,92.883,VALID,0,VALID,22.9403,VALID,26,VALID,1.06758,
2010-01-15, 02:12:05,VALID,999.917,VALID,0,VALID,92.7838,VALID,0,VALID,22.9013,VALID,26,VALID,1.10859,
2010-01-15, 02:13:05,VALID,999.908,VALID,0,VALID,92.7457,VALID,0,VALID,22.841,VALID,26,VALID,0.886328,
2010-01-15, 02:14:05,VALID,999.864,VALID,0,VALID,92.6923,VALID,0,VALID,22.8037,VALID,26,VALID,0.617969,
2010-01-15, 02:15:05,VALID,999.853,VALID,0,VALID,92.6999,VALID,0,VALID,22.7452,VALID,26,VALID,0.474609,
2010-01-15, 02:16:05,VALID,999.85,VALID,0,VALID,92.8906,VALID,0,VALID,22.7257,VALID,26,VALID,0.448828,
2010-01-15, 02:17:05,VALID,999.851,VALID,0,VALID,92.9669,VALID,0,VALID,22.7257,VALID,26,VALID,0.713281,
2010-01-15, 02:18:05,VALID,999.83,VALID,0,VALID,92.9745,VALID,0,VALID,22.6867,VALID,26,VALID,0.441016,
2010-01-15, 02:19:05,VALID,999.82,VALID,0,VALID,92.9822,VALID,0,VALID,22.6477,VALID,26,VALID,0.0234375,
2010-01-15, 02:20:05,VALID,999.854,VALID,0,VALID,92.9822,VALID,0,VALID,22.5892,VALID,26,VALID,0,
2010-01-15, 02:21:05,VALID,999.823,VALID,0,VALID,93.15,VALID,0,VALID,22.6087,VALID,25,VALID,0,
2010-01-15, 02:22:05,VALID,999.814,VALID,0,VALID,93.1805,VALID,0,VALID,22.6087,VALID,25,VALID,0,
2010-01-15, 02:23:05,VALID,999.779,VALID,0,VALID,93.2797,VALID,0,VALID,22.6087,VALID,25,VALID,0,
2010-01-15, 02:24:05,VALID,999.764,VALID,0,VALID,93.3789,VALID,0,VALID,22.6282,VALID,25,VALID,0,
2010-01-15, 02:25:05,VALID,999.729,VALID,0,VALID,93.5239,VALID,0,VALID,22.6672,VALID,84,VALID,0.138281,
2010-01-15, 02:26:05,VALID,999.732,VALID,0,VALID,93.5086,VALID,0,VALID,22.7062,VALID,99,VALID,0.559766,
2010-01-15, 02:27:05,VALID,999.721,VALID,0,VALID,93.501,VALID,0,VALID,22.6867,VALID,103,VALID,0.444531,
2010-01-15, 02:28:05,VALID,999.696,VALID,0,VALID,93.4705,VALID,0,VALID,22.6867,VALID,103,VALID,0,
2010-01-15, 02:29:05,VALID,999.72,VALID,0,VALID,93.5163,VALID,0,VALID,22.646,VALID,111,VALID,0.246094,
2010-01-15, 02:30:04,VALID,999.699,VALID,0,VALID,93.5468,VALID,0,VALID,22.685,VALID,118,VALID,0.583203,
2010-01-15, 02:31:04,VALID,999.669,VALID,0,VALID,93.5239,VALID,0,VALID,22.6867,VALID,120,VALID,0.0195313,
2010-01-15, 02:32:04,VALID,999.676,VALID,0,VALID,93.562,VALID,0,VALID,22.7062,VALID,127,VALID,0,
2010-01-15, 02:33:04,VALID,999.629,VALID,0,VALID,93.5849,VALID,0,VALID,22.7257,VALID,168,VALID,0,
2010-01-15, 02:34:04,VALID,999.6,VALID,0,VALID,93.6612,VALID,0,VALID,22.7842,VALID,161,VALID,0,
2010-01-15, 02:35:04,VALID,999.603,VALID,0,VALID,93.7375,VALID,0,VALID,22.8427,VALID,179,VALID,1.01211,
2010-01-15, 02:36:04,VALID,999.575,VALID,0,VALID,93.8367,VALID,0,VALID,22.9988,VALID,180,VALID,0.986328,
2010-01-15, 02:37:04,VALID,999.563,VALID,0,VALID,93.8291,VALID,0.112286,VALID,23.0573,VALID,185,VALID,0.45,
2010-01-15, 02:38:04,VALID,999.592,VALID,0,VALID,93.7451,VALID,0,VALID,23.0573,VALID,182,VALID,0.687891,
2010-01-15, 02:39:04,VALID,999.621,VALID,0,VALID,93.707,VALID,0,VALID,23.0361,VALID,171,VALID,0.341406,
2010-01-15, 02:40:04,VALID,999.598,VALID,0,VALID,93.6688,VALID,0,VALID,23.0361,VALID,147,VALID,0.684766,
2010-01-15, 02:41:04,VALID,999.625,VALID,0,VALID,93.6307,VALID,0,VALID,23.0573,VALID,156,VALID,1.14375,
2010-01-15, 02:42:04,VALID,999.625,VALID,0,VALID,93.5239,VALID,0,VALID,23.0166,VALID,163,VALID,0.896094,
2010-01-15, 02:43:04,VALID,999.626,VALID,0,VALID,93.5315,VALID,0,VALID,23.0361,VALID,147,VALID,0.713281,
2010-01-15, 02:44:04,VALID,999.614,VALID,0,VALID,93.4628,VALID,0,VALID,23.0769,VALID,109,VALID,1.09453,
2010-01-15, 02:45:04,VALID,999.646,VALID,0,VALID,93.3484,VALID,0,VALID,23.0378,VALID,136,VALID,0.988281,
2010-01-15, 02:46:04,VALID,999.652,VALID,0,VALID,93.2645,VALID,0,VALID,23.0378,VALID,98,VALID,0.984375,
2010-01-15, 02:47:04,VALID,999.716,VALID,0,VALID,93.3789,VALID,0,VALID,23.0769,VALID,94,VALID,1.32383,
2010-01-15, 02:48:04,VALID,999.75,VALID,0,VALID,93.3103,VALID,0,VALID,23.1159,VALID,84,VALID,0.912891,
2010-01-15, 02:49:04,VALID,999.769,VALID,0,VALID,93.1043,VALID,0.112286,VALID,23.0769,VALID,98,VALID,1.12578,
2010-01-15, 02:50:04,VALID,999.766,VALID,0,VALID,93.234,VALID,0,VALID,23.1159,VALID,97,VALID,1.10195,
2010-01-15, 02:51:04,VALID,999.795,VALID,0,VALID,93.1805,VALID,0,VALID,23.1141,VALID,95,VALID,1.31836,
2010-01-15, 02:52:04,VALID,999.77,VALID,0,VALID,93.1043,VALID,0,VALID,23.1159,VALID,92,VALID,0.841016,
2010-01-15, 02:53:04,VALID,999.771,VALID,0,VALID,93.0051,VALID,0,VALID,23.1159,VALID,88,VALID,0.515234,
2010-01-15, 02:54:04,VALID,999.778,VALID,0,VALID,92.9517,VALID,0,VALID,23.0964,VALID,83,VALID,0.828906,
2010-01-15, 02:55:04,VALID,999.755,VALID,0,VALID,92.9364,VALID,0,VALID,23.0769,VALID,79,VALID,0.630078,
2010-01-15, 02:56:04,VALID,999.735,VALID,0,VALID,92.9364,VALID,0,VALID,23.0769,VALID,74,VALID,0.886719,
2010-01-15, 02:57:04,VALID,999.728,VALID,0,VALID,92.9822,VALID,0,VALID,23.0964,VALID,65,VALID,1.16094,
2010-01-15, 02:58:04,VALID,999.736,VALID,0,VALID,92.9517,VALID,0,VALID,23.0964,VALID,60,VALID,0.980859,
2010-01-15, 02:59:04,VALID,999.71,VALID,0,VALID,92.6999,VALID,0,VALID,23.0361,VALID,24,VALID,0.725391,
2010-01-15, 03:00:04,VALID,999.694,VALID,0,VALID,92.5778,VALID,0,VALID,23.0183,VALID,355,VALID,0.8625,
2010-01-15, 03:01:04,VALID,999.689,VALID,0,VALID,92.5397,VALID,0,VALID,22.9793,VALID,353,VALID,0.726563,
2010-01-15, 03:02:04,VALID,999.686,VALID,0,VALID,92.7075,VALID,0,VALID,22.9598,VALID,335,VALID,0.744531,
2010-01-15, 03:03:04,VALID,999.654,VALID,0,VALID,92.883,VALID,0,VALID,22.9581,VALID,353,VALID,0.639063,
2010-01-15, 03:04:04,VALID,999.639,VALID,0,VALID,92.9364,VALID,0,VALID,22.9793,VALID,3,VALID,0.533594,
2010-01-15, 03:05:04,VALID,999.623,VALID,0,VALID,93.0203,VALID,0,VALID,22.9793,VALID,28,VALID,0.378516,
2010-01-15, 03:06:04,VALID,999.609,VALID,0,VALID,93.0508,VALID,0,VALID,22.9793,VALID,69,VALID,0.500391,
2010-01-15, 03:07:04,VALID,999.587,VALID,0,VALID,93.028,VALID,0.112286,VALID,22.9581,VALID,90,VALID,0.405469,
2010-01-15, 03:08:04,VALID,999.559,VALID,0,VALID,92.9364,VALID,0,VALID,22.9403,VALID,90,VALID,0.0558594,
2010-01-15, 03:09:04,VALID,999.55,VALID,0,VALID,92.944,VALID,0,VALID,22.9208,VALID,90,VALID,0.385547,
2010-01-15, 03:10:04,VALID,999.508,VALID,0,VALID,93.0127,VALID,0,VALID,22.919,VALID,276,VALID,0.510938,
2010-01-15, 03:11:04,VALID,999.546,VALID,0,VALID,93.028,VALID,0,VALID,22.9208,VALID,276,VALID,0.515625,
2010-01-15, 03:12:04,VALID,999.541,VALID,0,VALID,93.0051,VALID,0,VALID,22.9013,VALID,276,VALID,0.40625,
2010-01-15, 03:13:04,VALID,999.521,VALID,0,VALID,93.1119,VALID,0,VALID,22.9013,VALID,275,VALID,0.365625,
2010-01-15, 03:14:04,VALID,999.518,VALID,0,VALID,93.1653,VALID,0,VALID,22.88,VALID,276,VALID,0.291406,
2010-01-15, 03:15:04,VALID,999.549,VALID,0,VALID,93.1653,VALID,0,VALID,22.9013,VALID,275,VALID,0,
2010-01-15, 03:16:04,VALID,999.542,VALID,0,VALID,93.1577,VALID,0,VALID,22.8818,VALID,275,VALID,0,
2010-01-15, 03:17:04,VALID,999.529,VALID,0,VALID,93.1729,VALID,0,VALID,22.8818,VALID,275,VALID,0,
2010-01-15, 03:18:04,VALID,999.535,VALID,0,VALID,93.1805,VALID,0,VALID,22.8623,VALID,215,VALID,0.0683594,
2010-01-15, 03:19:04,VALID,999.529,VALID,0,VALID,93.2874,VALID,0,VALID,22.9013,VALID,195,VALID,0.458203,
2010-01-15, 03:20:04,VALID,999.531,VALID,0,VALID,93.3637,VALID,0,VALID,22.9208,VALID,131,VALID,0.874609,
2010-01-15, 03:21:04,VALID,999.528,VALID,0,VALID,93.3331,VALID,0.112286,VALID,22.9208,VALID,131,VALID,0.654297,
2010-01-15, 03:22:04,VALID,999.587,VALID,0,VALID,93.3789,VALID,0,VALID,22.9403,VALID,138,VALID,0.746094,
2010-01-15, 03:23:04,VALID,999.594,VALID,0,VALID,93.4018,VALID,0,VALID,22.9598,VALID,145,VALID,0.317578,
2010-01-15, 03:24:04,VALID,999.604,VALID,0,VALID,93.4247,VALID,0,VALID,22.9793,VALID,234,VALID,0.363281,
2010-01-15, 03:25:04,VALID,999.571,VALID,0,VALID,93.4476,VALID,0,VALID,23.0183,VALID,324,VALID,0.85,
2010-01-15, 03:26:04,VALID,999.635,VALID,0,VALID,93.3408,VALID,0,VALID,22.9793,VALID,331,VALID,0.878125,
2010-01-15, 03:27:04,VALID,999.62,VALID,0,VALID,93.295,VALID,0,VALID,22.9385,VALID,331,VALID,0.703516,
2010-01-15, 03:28:04,VALID,999.616,VALID,0,VALID,93.3331,VALID,0,VALID,22.9793,VALID,331,VALID,0.254297,
2010-01-15, 03:29:04,VALID,999.637,VALID,0,VALID,93.356,VALID,0,VALID,22.9988,VALID,331,VALID,0,
2010-01-15, 03:30:04,VALID,999.64,VALID,0,VALID,93.3942,VALID,0,VALID,23.0183,VALID,331,VALID,0.161328,
2010-01-15, 03:31:04,VALID,999.661,VALID,0,VALID,93.4552,VALID,0.112286,VALID,23.0361,VALID,141,VALID,0.510938,
2010-01-15, 03:32:04,VALID,999.657,VALID,0,VALID,93.4018,VALID,0,VALID,23.0573,VALID,111,VALID,0.388672,
2010-01-15, 03:33:04,VALID,999.641,VALID,0,VALID,93.356,VALID,0,VALID,23.0573,VALID,85,VALID,0.508594,
2010-01-15, 03:34:04,VALID,999.626,VALID,0,VALID,93.356,VALID,0,VALID,23.0573,VALID,91,VALID,0.470703,
2010-01-15, 03:35:04,VALID,999.668,VALID,0,VALID,93.3331,VALID,0,VALID,23.0573,VALID,105,VALID,0.422266,
2010-01-15, 03:36:04,VALID,999.662,VALID,0,VALID,93.3331,VALID,0,VALID,23.0769,VALID,120,VALID,0.466016,
2010-01-15, 03:37:04,VALID,999.662,VALID,0,VALID,93.3408,VALID,0,VALID,23.0964,VALID,120,VALID,0.124219,
2010-01-15, 03:38:04,VALID,999.678,VALID,0,VALID,93.3484,VALID,0.112286,VALID,23.0946,VALID,144,VALID,0.358203,
2010-01-15, 03:39:04,VALID,999.641,VALID,0,VALID,93.3484,VALID,0,VALID,23.1354,VALID,144,VALID,0.222656,
2010-01-15, 03:40:04,VALID,999.661,VALID,0,VALID,93.3331,VALID,0,VALID,23.1336,VALID,144,VALID,0.344141,
2010-01-15, 03:41:04,VALID,999.641,VALID,0,VALID,93.3255,VALID,0,VALID,23.1549,VALID,142,VALID,0.372656,
2010-01-15, 03:42:04,VALID,999.644,VALID,0,VALID,93.2797,VALID,0,VALID,23.1336,VALID,139,VALID,0.682031,
2010-01-15, 03:43:04,VALID,999.65,VALID,0,VALID,93.2492,VALID,0,VALID,23.1159,VALID,138,VALID,0.795703,
2010-01-15, 03:44:04,VALID,999.641,VALID,0,VALID,93.2416,VALID,0,VALID,23.1354,VALID,125,VALID,1.01641,
2010-01-15, 03:45:04,VALID,999.664,VALID,0,VALID,93.2492,VALID,0,VALID,23.1566,VALID,119,VALID,1.30859,
2010-01-15, 03:46:04,VALID,999.671,VALID,0,VALID,93.1882,VALID,0,VALID,23.1762,VALID,110,VALID,1.37656,
2010-01-15, 03:47:04,VALID,999.669,VALID,0,VALID,93.15,VALID,0,VALID,23.1744,VALID,104,VALID,1.62188,
2010-01-15, 03:48:04,VALID,999.715,VALID,0,VALID,93.1119,VALID,0,VALID,23.2152,VALID,103,VALID,1.55586,
2010-01-15, 03:49:04,VALID,999.698,VALID,0,VALID,93.0356,VALID,0,VALID,23.2134,VALID,99,VALID,1.10586,
2010-01-15, 03:50:04,VALID,999.733,VALID,0,VALID,92.9593,VALID,0,VALID,23.2134,VALID,97,VALID,0.928516,
2010-01-15, 03:51:04,VALID,999.763,VALID,0,VALID,92.8983,VALID,0,VALID,23.2542,VALID,95,VALID,1.45391,